GFSSW_925_spd_132.txt.gz
Wind_Speed
33 32 31 28 30 26 25 22 20 22 23 23 25 26 24 17 10 11 8 10 10 6 11 6 3 3 6 4 3 4 3 4 5 3 3 3 1 2 1 5 2 3 4 3 23
37 35 33 30 29 29 27 24 22 21 21 23 22 24 26 21 18 13 17 15 8 7 11 11 4 3 3 3 3 1 5 9 5 1 3 4 0 3 3 3 3 3 1 8 28
39 38 36 33 32 32 29 29 25 23 20 19 20 24 22 20 5 6 33 18 9 8 10 9 8 4 3 1 3 1 4 3 3 2 2 3 2 3 4 4 7 8 7 15 18
41 39 38 34 34 33 31 31 30 27 23 19 16 16 20 20 9 6 16 26 23 9 8 8 3 5 4 5 3 5 6 4 3 2 1 3 2 2 6 5 3 8 9 18 18
44 40 40 38 36 33 32 30 29 27 25 21 17 16 15 8 5 8 10 26 16 17 15 5 5 5 6 4 4 3 4 4 5 4 4 3 3 4 6 7 3 5 11 15 17
46 43 42 40 37 34 33 30 28 26 23 21 19 15 4 17 6 7 4 19 23 20 14 9 8 5 5 6 5 6 4 1 2 3 3 2 3 2 3 3 3 6 10 11 15
49 47 44 41 36 35 32 30 28 24 23 21 17 18 2 13 7 17 10 21 25 26 6 18 8 5 7 4 3 3 1 3 4 2 5 5 12 10 9 4 4 7 7 7 12
48 48 45 43 39 34 31 29 26 24 21 19 17 14 6 6 11 9 12 17 19 27 21 14 10 2 3 4 4 4 2 1 3 6 6 7 17 16 8 8 10 9 8 8 11
50 49 44 44 41 36 31 28 26 24 20 17 12 5 5 7 13 21 16 13 25 18 21 8 5 3 2 5 2 4 4 4 6 8 2 8 8 16 8 9 10 8 9 10 11
47 49 47 45 43 39 32 27 21 19 18 15 7 3 6 7 13 17 15 13 6 14 8 7 4 5 4 6 12 6 5 4 6 4 4 3 17 12 1 8 12 9 9 11 12
55 53 52 48 45 41 34 26 8 1 14 7 8 3 1 13 13 13 16 13 6 7 9 8 7 8 17 17 2 6 5 9 3 6 5 10 16 15 13 4 8 10 9 12 13
53 52 53 49 46 43 40 10 16 9 11 8 3 3 8 6 5 7 20 10 10 18 10 6 15 16 10 10 7 3 4 4 3 2 5 6 14 12 9 8 12 16 11 14 11
37 58 54 51 48 44 38 21 27 22 6 11 4 6 2 4 3 12 17 9 14 18 17 16 22 14 10 10 14 13 15 4 3 3 3 6 14 13 9 15 15 11 16 14 16
28 58 57 54 45 39 27 27 33 9 4 4 10 7 5 7 4 7 14 8 7 22 20 17 14 17 17 19 15 21 6 6 5 1 4 5 7 6 6 16 9 19 17 19 14
43 65 58 62 40 24 35 32 30 4 3 6 9 10 9 8 6 4 22 12 18 11 6 12 14 17 21 24 19 11 10 6 1 2 3 4 5 7 2 8 12 16 17 15 17
42 58 62 48 33 34 40 33 11 4 7 5 9 13 10 8 2 3 5 4 2 7 11 12 3 11 9 8 17 8 6 4 2 1 9 16 11 9 9 12 10 6 11 15 15
40 65 61 48 22 46 45 18 5 5 2 6 7 14 17 12 11 6 15 14 14 14 17 20 10 7 9 9 15 17 10 3 6 6 12 4 10 19 7 9 8 10 11 10 10
36 69 50 36 51 52 34 8 5 4 7 4 7 14 15 9 14 9 9 15 19 15 4 17 13 15 17 14 10 27 15 5 8 6 8 5 10 6 12 19 18 11 10 7 8
46 41 35 51 57 49 16 14 8 7 8 9 8 10 8 9 8 10 10 15 13 27 17 7 17 17 11 5 15 12 11 11 5 2 2 5 9 7 11 14 10 10 8 12 10
31 30 25 53 51 34 13 9 5 6 8 4 5 4 7 17 9 19 13 14 15 19 21 4 5 18 10 8 5 12 16 11 3 4 5 6 7 12 4 20 12 12 13 16 9
32 6 32 51 43 12 16 7 4 2 5 5 5 5 3 7 12 12 8 13 21 14 18 6 4 8 11 16 20 8 12 7 6 5 5 8 11 8 17 18 16 19 15 14 10
3 6 33 47 12 7 12 7 4 6 2 4 4 4 5 7 3 11 11 8 8 14 17 21 3 3 24 6 19 23 8 18 9 13 5 0 14 1 9 8 5 10 7 7 8
4 5 20 33 7 14 1 4 2 5 5 3 3 3 1 4 3 7 6 5 5 9 15 9 9 9 4 4 3 17 15 23 13 3 18 13 21 3 2 7 7 9 9 8 7
6 6 4 3 1 14 6 4 4 3 4 4 5 5 4 2 2 2 4 3 7 11 20 7 12 15 13 13 6 23 29 26 27 15 22 23 36 17 5 6 8 7 9 7 7
4 4 2 11 2 10 5 5 5 5 2 3 3 4 7 4 5 8 6 3 5 8 13 16 18 23 31 26 14 18 24 28 25 31 21 30 31 27 11 11 7 6 5 5 7
4 5 3 6 6 9 2 4 8 1 6 2 4 9 9 8 10 3 1 7 9 7 7 14 16 18 27 21 29 24 24 27 26 30 28 30 29 24 12 12 7 8 7 9 9
2 4 5 8 4 5 5 6 7 8 3 5 11 5 9 11 8 10 12 12 14 13 8 10 15 10 23 29 18 26 31 32 29 34 32 29 39 17 7 10 16 11 10 12 13

GFSSW_925_spd_138.txt.gz
Wind_Speed
31 31 28 29 25 25 26 22 22 21 20 20 22 21 19 17 17 12 11 8 10 6 4 3 1 1 1 1 1 1 7 14 19 16 7 1 3 3 1 3 3 5 2 2 13
34 31 31 30 29 26 24 26 22 21 21 21 20 25 23 16 16 14 12 15 7 6 4 5 4 2 3 2 3 6 12 19 15 16 13 5 3 1 3 5 6 6 6 5 16
36 34 33 32 31 28 27 25 25 21 21 20 21 21 19 17 4 8 21 17 14 8 5 4 4 3 7 3 5 3 13 14 13 17 19 18 13 4 5 7 10 10 10 12 18
35 37 34 34 32 31 27 27 26 23 20 19 20 22 19 14 11 6 19 26 20 8 6 4 5 6 7 10 5 7 10 9 7 6 7 12 11 11 12 9 2 3 4 16 18
30 36 37 35 34 33 30 28 27 25 21 19 17 20 17 7 14 1 13 24 25 18 6 4 5 4 8 6 5 10 9 9 5 4 5 1 12 13 11 10 6 5 7 14 17
30 33 38 38 35 33 31 30 27 26 23 19 17 20 14 17 12 14 6 19 20 19 13 10 6 3 2 1 8 6 14 7 4 9 6 7 13 5 10 10 9 9 11 13 17
29 31 37 39 36 35 32 30 29 27 25 23 18 15 4 18 13 13 14 20 20 23 17 15 10 5 2 2 7 9 7 8 12 8 6 7 17 15 18 9 11 10 10 11 15
29 29 34 39 39 36 34 31 28 26 23 22 17 13 5 15 8 17 17 12 15 16 11 12 9 5 6 3 3 6 7 16 11 10 6 10 23 16 17 19 22 22 18 12 15
30 32 30 38 41 38 36 31 27 23 19 18 13 11 8 10 12 13 20 18 17 9 7 12 8 5 4 8 4 5 8 23 17 11 5 14 16 11 15 17 20 21 21 18 16
34 35 33 35 44 41 37 31 22 21 18 16 7 6 6 15 9 10 15 19 11 11 6 6 4 3 4 9 12 15 19 17 16 8 11 13 18 18 12 8 17 18 17 16 18
36 34 39 37 35 46 38 28 12 6 13 6 12 3 4 7 13 16 11 14 11 6 13 7 7 12 14 12 19 14 18 18 12 8 7 15 18 20 18 17 20 20 17 18 20
37 36 36 36 34 44 44 17 33 12 11 3 11 5 3 7 8 14 19 16 13 17 13 8 20 25 16 9 17 13 11 14 9 6 7 12 19 21 22 18 21 22 21 23 20
37 39 38 39 35 35 46 42 29 35 6 3 6 15 4 8 5 15 19 21 15 20 16 20 19 13 20 16 14 17 18 9 11 3 9 9 20 25 19 20 22 23 24 24 23
38 39 42 37 21 40 41 43 33 25 6 7 9 8 6 6 5 12 21 17 13 19 19 16 24 15 10 18 18 14 13 12 13 4 7 1 9 19 13 14 15 19 21 23 24
40 41 41 42 20 36 49 47 41 7 9 16 12 13 12 15 10 9 17 10 22 15 15 12 17 13 18 22 21 8 13 19 20 17 11 14 7 18 15 19 20 20 19 21 21
43 42 40 39 35 41 51 51 16 7 8 10 14 18 18 11 7 7 11 10 8 18 19 19 5 13 24 15 13 11 5 2 3 4 8 22 15 12 18 21 21 22 21 19 19
43 41 41 40 26 43 52 20 7 9 8 11 13 19 24 14 10 11 14 17 14 14 24 26 23 17 7 17 21 18 7 2 4 6 9 6 15 22 16 18 20 19 17 17 15
43 40 39 41 31 51 40 16 10 8 11 10 16 21 24 20 13 12 12 14 23 20 10 18 13 26 21 26 17 25 22 9 9 7 12 6 11 9 20 23 23 20 18 14 14
40 36 35 30 34 56 19 19 10 16 11 18 25 23 11 18 11 16 19 15 19 21 14 15 18 6 15 21 23 20 17 25 13 1 5 6 17 9 9 12 14 17 18 19 17
35 26 23 37 39 41 17 9 5 11 20 24 12 15 16 20 14 19 17 18 20 23 18 8 9 19 11 16 14 11 7 6 5 9 13 13 22 14 8 16 17 18 18 17 15
25 9 24 42 40 17 19 5 5 15 24 10 11 13 15 18 20 14 13 6 19 16 22 10 8 1 13 18 21 8 11 9 4 4 11 14 14 18 19 19 19 17 12 12 12
2 5 28 48 11 8 12 14 10 16 6 6 9 12 16 21 17 18 17 18 11 17 24 22 4 10 16 8 11 23 15 17 9 6 6 8 16 2 4 8 14 10 6 10 12
6 3 20 40 12 7 8 13 8 10 8 6 5 6 11 16 10 14 12 9 6 16 11 11 10 10 4 3 8 14 24 23 13 3 15 7 13 9 14 9 8 10 12 8 7
3 6 3 5 6 22 20 13 10 5 5 7 8 12 12 16 3 13 8 5 7 9 8 14 11 13 16 3 2 3 19 22 20 9 10 15 28 30 18 9 11 11 11 9 7
0 4 3 6 10 14 8 8 19 8 4 4 4 9 12 7 3 6 8 5 4 8 16 7 4 10 15 14 12 13 14 12 19 24 14 22 28 34 26 21 22 19 14 9 11
4 6 4 5 17 20 11 11 12 6 4 7 9 11 6 6 6 10 10 5 4 4 15 12 4 8 6 15 15 18 18 20 23 19 19 31 33 36 31 19 19 18 18 22 22
2 2 9 16 11 14 6 8 11 11 7 6 17 9 11 10 8 9 5 4 4 5 6 5 5 3 7 9 11 12 23 21 24 23 20 19 36 39 28 24 22 19 19 21 21

GFSSW_925_spd_141.txt.gz
Wind_Speed
32 31 28 26 26 24 22 22 21 20 18 16 17 19 16 13 12 12 14 11 12 15 6 5 5 6 6 5 5 3 9 13 18 15 14 8 5 4 2 6 2 4 4 3 16
34 32 30 30 28 27 23 22 23 19 19 17 16 17 19 14 15 21 13 15 14 11 9 8 8 6 8 8 4 8 11 18 15 14 12 11 10 7 6 9 8 8 5 5 15
30 34 32 30 30 28 25 24 22 21 19 17 16 16 13 8 12 13 23 20 15 7 9 8 6 8 11 8 10 8 16 15 16 13 14 16 14 6 7 10 9 11 12 11 14
28 30 34 32 31 29 27 25 23 22 19 18 16 17 14 11 10 4 22 25 20 11 11 10 8 11 10 16 14 11 14 17 14 11 11 16 18 22 14 16 3 5 1 13 14
26 28 30 34 32 31 29 27 25 23 20 18 16 18 14 11 19 3 11 20 17 13 15 13 14 13 16 12 17 13 18 13 14 11 11 10 13 16 18 16 14 6 6 11 14
26 26 28 32 34 31 31 28 24 23 22 19 16 18 17 18 15 11 9 15 17 19 9 8 7 3 6 8 11 6 9 18 14 14 13 12 18 15 10 13 16 11 12 12 15
28 27 27 28 33 33 30 28 26 23 23 20 17 15 19 17 9 17 13 16 20 18 16 10 6 3 5 1 5 8 12 13 17 15 12 10 21 23 16 18 15 18 15 13 14
26 28 26 28 31 34 31 29 27 25 21 20 16 10 9 13 12 13 17 15 13 17 19 12 10 1 2 2 2 6 10 16 18 17 15 9 24 16 17 22 24 22 19 15 15
29 28 28 27 30 34 33 31 26 22 18 17 12 11 5 10 18 17 19 20 11 8 6 12 7 4 5 8 4 8 11 18 20 18 13 16 19 16 19 19 18 20 22 22 21
31 31 29 28 28 33 34 30 22 17 15 13 11 9 8 14 13 22 15 18 8 7 2 6 5 5 7 8 11 7 10 16 17 13 14 20 23 20 16 15 16 18 20 21 23
32 32 32 33 28 32 34 23 9 6 20 9 10 11 4 11 16 18 21 19 16 7 12 8 6 10 11 15 19 15 12 20 19 16 3 19 22 23 21 22 22 20 20 19 20
34 35 33 32 32 30 36 15 33 6 11 9 8 15 4 16 10 17 20 16 13 12 17 8 14 27 17 12 8 18 15 17 18 14 10 19 24 23 23 21 23 21 23 23 22
35 36 34 33 32 30 28 41 36 28 6 6 7 16 8 13 15 19 23 21 18 21 14 21 26 18 21 19 15 20 14 13 17 11 17 17 25 25 29 26 25 23 21 23 22
34 36 36 33 26 29 27 30 41 29 6 10 8 10 7 7 7 13 24 19 11 17 20 16 22 17 20 25 21 21 19 18 16 11 11 10 12 20 24 21 22 21 20 22 22
33 36 36 37 24 24 11 28 47 17 9 17 9 16 16 15 13 8 18 21 24 19 10 16 15 18 20 19 14 22 14 11 10 14 10 16 7 16 19 24 22 20 19 20 20
31 35 35 34 33 24 26 36 14 6 8 12 15 19 21 20 10 9 11 12 11 18 20 21 7 15 26 23 18 4 5 7 10 12 11 23 20 14 17 24 23 21 18 18 15
27 34 37 34 28 33 32 17 8 7 13 9 15 24 27 15 16 13 15 19 13 14 22 25 24 17 9 15 6 8 7 4 4 5 7 17 17 23 15 17 19 17 11 13 13
28 36 40 36 34 36 30 15 15 10 10 14 18 23 21 22 18 18 17 17 22 20 10 18 18 26 21 20 22 15 10 4 8 4 8 11 9 13 18 17 22 20 13 14 10
27 35 33 35 34 35 14 18 10 19 12 21 22 21 15 22 13 18 22 22 21 24 15 14 20 11 22 26 21 11 11 21 11 18 6 7 17 16 15 14 11 13 13 15 14
30 24 26 33 37 26 6 17 5 16 17 25 14 18 18 25 21 21 21 18 22 25 20 14 11 18 14 19 22 26 15 8 7 6 8 12 21 14 9 14 12 14 15 13 12
19 8 19 33 32 12 11 6 4 19 21 19 17 17 17 22 22 21 17 9 24 21 22 18 13 6 11 16 23 18 21 20 12 12 14 15 15 16 19 19 20 17 14 7 6
6 4 20 37 12 5 15 9 10 24 17 5 12 12 20 25 21 22 19 19 10 20 23 22 7 12 17 12 14 19 23 23 5 7 9 18 21 13 4 6 7 10 1 4 4
9 3 27 30 10 8 6 11 18 27 20 12 7 9 18 18 12 18 17 14 11 17 14 15 9 9 6 10 12 9 19 20 18 19 19 7 13 16 19 19 13 7 6 6 4
4 5 5 7 2 15 10 12 18 15 7 6 14 19 21 19 6 18 15 13 14 11 7 8 15 14 15 14 6 6 16 21 21 15 12 17 25 32 25 18 11 13 7 7 5
3 3 2 9 5 15 8 11 22 11 6 12 9 20 21 14 9 10 18 13 13 12 14 8 5 15 23 20 21 20 15 11 11 19 18 25 27 36 27 23 21 19 18 18 17
5 4 4 7 17 16 12 14 19 8 7 10 16 22 13 15 10 16 16 15 10 16 13 10 4 6 5 14 16 20 23 23 23 22 18 23 27 34 29 24 27 22 20 20 21
2 7 7 16 16 9 10 12 14 13 8 11 22 16 13 14 8 12 8 5 5 14 16 9 6 2 5 8 13 10 23 23 23 23 22 22 28 30 29 20 18 20 22 22 22

GFSSW_925_spd_144.txt.gz
Wind_Speed
31 30 27 25 22 21 19 17 17 18 17 15 12 13 10 10 8 8 10 9 7 14 14 12 10 10 8 6 2 5 3 6 11 9 6 7 5 3 4 1 2 4 3 5 23
28 31 30 27 25 22 21 19 17 18 16 16 12 11 12 10 11 17 11 12 12 14 6 10 10 8 5 7 3 4 4 8 10 8 6 5 7 8 2 5 5 4 6 13 19
28 26 31 30 26 25 22 21 18 16 15 15 13 11 9 6 9 12 19 21 12 13 7 10 12 9 8 10 6 4 8 11 10 9 8 7 7 3 5 7 5 7 14 14 18
28 28 27 31 29 26 24 21 19 17 16 12 13 11 11 10 9 5 14 23 24 17 9 9 8 9 5 8 10 12 12 12 11 12 4 7 8 8 8 9 8 6 9 18 10
27 28 27 26 29 28 25 23 21 19 15 13 14 12 10 10 16 6 4 13 14 14 14 11 11 10 13 7 12 14 11 11 14 7 6 3 8 7 10 10 8 6 2 9 11
28 27 27 26 27 29 26 24 21 19 17 15 14 14 9 17 16 9 6 9 11 16 15 15 6 9 7 11 14 6 9 8 13 11 7 8 9 8 7 6 7 10 8 8 9
31 26 27 25 25 27 28 25 22 20 17 16 15 13 13 15 6 17 13 10 15 15 10 4 2 3 1 4 9 6 8 10 12 9 6 6 11 12 11 12 7 10 8 9 10
30 29 27 26 26 25 28 26 23 20 16 16 14 12 7 16 22 9 14 14 10 13 12 9 3 4 3 3 3 2 7 11 7 11 7 8 16 9 9 12 15 12 13 12 12
31 28 29 26 26 25 27 27 22 19 15 13 8 9 8 9 14 18 13 17 14 3 1 7 6 3 3 3 2 6 11 13 15 14 9 14 10 8 6 12 12 10 10 12 15
31 31 27 26 24 25 25 26 20 15 13 10 11 6 7 12 10 19 15 15 6 8 3 4 4 6 6 7 12 5 5 11 15 9 9 17 19 12 9 12 13 10 10 11 14
32 32 30 27 26 24 24 15 7 4 17 9 12 9 4 16 17 18 20 14 10 4 9 6 6 11 16 15 7 5 10 16 14 17 15 14 15 15 15 15 17 15 13 12 13
33 32 31 31 26 24 26 7 19 6 8 17 7 18 7 17 10 14 24 12 10 13 9 6 15 22 9 9 14 13 14 17 14 10 11 11 18 13 17 19 17 15 16 17 16
35 33 32 30 28 24 28 25 29 20 4 11 9 12 11 12 14 15 18 16 13 14 15 15 14 12 14 14 13 13 16 15 13 10 14 15 21 17 23 20 19 20 17 17 18
34 35 34 31 21 26 23 23 25 22 5 8 12 7 11 8 7 15 26 11 8 17 17 13 20 17 11 18 14 17 15 12 10 4 7 3 9 14 12 15 19 23 22 23 20
34 35 35 36 15 24 14 22 23 8 11 17 14 11 13 15 8 10 23 16 16 12 12 12 11 13 16 20 11 19 6 14 11 11 7 19 9 15 5 14 16 11 12 21 20
30 34 35 35 26 24 23 21 20 7 12 13 15 21 19 16 8 9 11 4 6 14 13 16 8 7 16 13 13 4 2 3 3 4 9 19 13 15 15 20 18 14 15 10 14
25 33 37 31 24 23 29 10 9 11 2 5 19 24 28 15 14 15 16 14 10 10 16 19 18 10 8 8 9 15 5 3 4 4 8 21 11 21 15 13 12 10 13 12 11
25 29 36 34 27 29 28 10 17 10 8 4 14 24 21 22 14 16 15 14 16 13 7 12 9 21 14 13 8 8 12 7 5 7 6 8 7 12 17 19 25 20 13 10 9
22 24 23 29 32 33 11 15 8 9 13 12 18 27 9 20 12 15 17 16 17 16 10 11 15 5 13 15 11 8 10 13 14 11 5 3 6 10 12 9 7 8 7 10 10
19 13 21 31 31 26 11 15 8 8 16 20 14 17 16 25 14 18 17 16 13 21 13 3 4 10 10 14 15 18 8 4 5 8 9 8 7 9 6 7 7 9 11 11 9
13 6 22 33 32 10 11 11 5 11 20 18 15 15 14 20 19 20 16 6 23 16 17 3 2 1 3 11 15 11 15 13 4 3 2 3 5 5 10 8 5 6 8 8 6
3 4 36 39 11 5 13 6 8 12 16 7 10 8 17 23 19 15 13 13 17 15 23 15 1 6 11 7 5 13 15 19 10 18 7 6 13 8 17 23 12 9 5 2 2
3 3 28 30 11 5 6 5 1 15 16 7 8 7 13 18 11 10 16 12 12 15 13 12 5 2 1 4 7 6 11 11 13 15 18 13 12 3 8 12 12 12 7 2 4
2 4 4 7 3 5 11 13 6 21 10 5 13 13 18 21 6 12 16 9 8 8 8 14 4 10 12 3 6 8 15 12 12 10 17 12 26 34 23 22 20 16 14 13 8
2 2 3 8 10 6 6 19 13 9 2 11 9 21 20 11 5 10 9 6 10 6 5 6 6 11 14 11 10 14 7 10 11 15 14 22 20 31 17 9 15 19 24 23 22
3 2 1 8 18 14 12 16 21 3 11 11 16 20 15 16 8 16 11 11 8 11 6 3 1 2 4 4 9 13 14 14 12 13 9 16 20 31 22 16 16 17 21 21 19
4 3 3 9 11 12 14 10 19 11 5 5 23 19 8 13 7 7 9 9 8 11 12 9 4 4 3 3 4 8 18 16 16 18 16 18 26 29 24 8 12 15 12 12 14

GFSSW_925_spd_147.txt.gz
Wind_Speed
23 27 26 23 21 18 16 15 13 13 15 12 10 9 9 7 8 4 7 6 6 11 7 9 8 9 6 2 2 3 3 2 4 3 4 3 3 2 3 5 2 3 2 3 28
27 22 28 26 23 20 17 16 14 12 14 12 11 8 10 8 6 12 9 10 11 10 6 5 5 13 2 2 2 4 3 6 5 4 5 3 1 4 2 2 2 1 3 18 24
23 25 21 27 26 23 19 17 16 13 12 11 11 9 8 5 3 5 21 21 13 13 7 4 6 3 2 1 3 4 4 5 11 5 5 2 6 2 4 2 5 4 8 12 12
25 24 24 21 27 25 21 18 16 13 11 11 10 10 8 7 7 4 15 22 21 16 6 3 3 1 2 2 4 4 5 5 8 7 4 3 3 5 2 6 4 1 8 14 9
26 27 26 25 23 27 23 19 17 16 12 12 10 11 10 6 9 6 8 18 16 14 13 6 5 4 5 4 4 6 5 6 9 8 5 6 3 4 6 9 9 2 10 13 13
27 28 27 26 24 24 26 22 18 16 14 12 11 13 6 17 13 13 4 10 9 11 10 9 4 6 3 5 5 3 2 4 4 8 5 7 5 1 4 6 9 7 8 10 13
29 29 28 26 26 24 25 24 19 18 15 13 13 12 9 13 8 5 15 7 13 11 7 3 1 2 1 0 3 2 4 5 2 4 5 4 10 6 8 10 12 10 9 9 12
31 30 30 28 26 25 24 25 22 18 16 13 12 11 7 11 23 8 11 11 11 9 2 3 8 4 3 2 4 3 3 2 3 6 7 5 19 5 8 8 12 12 11 10 11
34 30 29 29 26 24 23 24 23 19 15 12 8 6 7 9 10 26 10 15 12 7 4 5 4 2 2 2 2 1 6 4 6 8 7 8 20 6 11 10 10 9 10 13 12
36 35 32 30 26 24 23 22 20 15 12 10 3 3 6 3 9 12 15 12 5 6 4 3 3 3 5 7 13 6 5 5 9 2 5 10 21 9 9 10 15 11 10 10 10
36 36 34 31 30 25 22 13 7 5 15 6 10 5 1 17 11 14 17 11 5 3 7 7 4 14 14 10 13 2 3 8 6 6 14 13 18 12 11 8 10 13 14 15 12
35 35 35 31 28 27 27 7 5 10 6 15 5 13 4 8 5 7 22 8 7 10 9 4 14 8 4 8 9 11 11 14 9 7 6 10 17 17 14 14 13 17 17 15 16
33 33 33 31 28 26 26 29 21 23 4 12 9 9 10 6 7 12 15 7 6 10 13 11 5 11 7 8 8 11 15 12 8 4 10 9 15 16 15 16 17 21 20 18 18
32 34 34 31 21 22 20 31 24 5 5 6 14 6 8 3 6 14 20 9 5 15 6 8 13 7 11 14 11 15 7 7 9 5 6 7 6 16 9 17 20 17 18 21 21
31 33 35 36 13 23 14 24 27 5 11 17 12 11 12 11 7 9 18 3 10 7 8 12 10 12 12 14 7 10 7 9 9 9 8 7 5 10 3 10 15 10 10 13 19
34 36 37 37 24 24 19 27 17 9 9 8 14 16 16 16 2 6 8 5 4 4 3 16 4 9 11 14 11 5 1 4 2 1 10 16 10 12 10 15 12 9 14 18 13
33 37 40 37 24 24 30 13 11 6 10 11 13 23 27 15 17 8 14 15 11 11 14 6 12 3 3 5 6 5 5 4 5 5 5 9 7 16 16 20 12 18 15 13 10
36 40 41 36 32 30 31 9 17 9 5 3 11 24 22 18 16 12 17 17 18 5 6 12 5 15 6 10 7 7 10 7 8 5 4 2 7 8 17 18 18 20 21 17 17
39 32 31 33 37 34 11 17 15 5 10 7 17 23 14 18 11 14 20 21 15 16 9 8 8 5 8 7 10 5 7 12 12 10 3 5 6 14 14 16 10 9 9 10 11
26 21 20 32 39 27 11 13 8 2 7 11 9 13 12 22 13 17 18 16 6 17 4 4 2 7 8 6 10 15 6 3 3 4 11 7 7 9 9 4 7 8 7 9 8
14 5 14 36 31 11 11 7 4 8 5 17 10 8 7 19 19 19 12 6 16 19 8 4 3 4 9 8 11 4 11 6 3 4 3 6 6 9 9 5 6 9 10 12 8
4 3 22 36 7 5 11 6 3 7 7 11 5 3 15 23 20 18 16 11 16 16 19 5 3 4 6 4 6 16 18 15 8 7 4 3 11 3 11 14 14 8 12 10 12
6 3 25 24 9 5 6 6 3 5 7 4 8 6 9 15 9 13 16 14 12 15 15 10 4 2 7 6 3 5 6 8 5 5 16 9 12 1 9 8 12 11 9 10 9
4 3 4 7 1 5 7 9 6 6 8 9 7 5 13 16 3 13 13 11 10 12 11 16 4 8 10 5 5 5 5 6 8 7 18 15 25 28 15 7 9 13 15 18 17
1 2 3 13 11 11 5 14 19 7 6 15 7 18 16 9 8 9 10 5 7 12 9 11 7 6 1 6 2 4 6 10 14 17 9 19 14 25 13 8 13 16 18 18 16
3 3 3 8 9 13 14 9 16 4 12 7 10 21 18 15 14 15 15 9 12 5 12 3 3 3 1 3 5 9 11 7 6 5 9 9 18 19 15 10 8 9 9 11 14
5 6 1 11 6 6 10 5 22 15 7 5 18 13 15 17 8 12 9 8 8 15 7 8 6 3 4 3 1 8 7 13 12 8 8 11 22 22 11 11 12 11 12 13 15